| time (UTC) | temp C | wind direction | speed KPH | gust KPH | rain 1hr cm | rain 24hr cm | rain mn cm | humidity % | barometer mb |
| 20260506135610 | 20 | 175 | 3.2 | 6.4 | 0.00 | 0.86 | 0.03 | 1004.8 | |
| 20260506134606 | 20 | 150 | 1.6 | 6.4 | 0.00 | 0.86 | 0.03 | 1004.9 | |
| 20260506133603 | 20 | 176 | 1.6 | 6.4 | 0.00 | 0.86 | 0.03 | 1004.8 | |
| 20260506132559 | 20 | 135 | 0.0 | 6.4 | 0.00 | 0.86 | 0.03 | 1004.9 | |
| 20260506131555 | 20 | 171 | 3.2 | 6.4 | 0.00 | 0.86 | 0.03 | 1004.9 | |
| 20260506130551 | 20 | 180 | 3.2 | 8.0 | 0.00 | 0.86 | 0.03 | 1005.0 | |
| 20260506125548 | 21 | 185 | 3.2 | 11.3 | 0.00 | 0.86 | 0.03 | 1004.9 | |
| 20260506124544 | 20 | 229 | 1.6 | 11.3 | 0.00 | 0.86 | 0.03 | 1005.1 | |
| 20260506123540 | 20 | 259 | 1.6 | 8.0 | 0.00 | 0.86 | 0.03 | 1005.1 | |
| 20260506122536 | 21 | 230 | 1.6 | 8.0 | 0.00 | 0.86 | 0.03 | 1005.1 | |
| 20260506121533 | 21 | 170 | 1.6 | 8.0 | 0.00 | 0.86 | 0.03 | 1005.3 | |
| 20260506120528 | 20 | 270 | 3.2 | 4.8 | 0.00 | 0.86 | 0.03 | 1005.4 | |
| 20260506115525 | 20 | 225 | 0.0 | 6.4 | 0.00 | 0.86 | 0.03 | 1005.4 | |
| 20260506114521 | 20 | 193 | 3.2 | 6.4 | 0.00 | 0.86 | 0.03 | 1005.3 | |
| 20260506113518 | 20 | 190 | 3.2 | 9.7 | 0.00 | 0.86 | 0.03 | 1005.4 | |
| 20260506112614 | 19 | 225 | 1.6 | 6.4 | 0.00 | 0.86 | 0.03 | 1005.5 | |
| 20260506111610 | 20 | 232 | 4.8 | 11.3 | 0.00 | 0.86 | 0.03 | 1005.5 | |
| 20260506110607 | 20 | 225 | 3.2 | 6.4 | 0.00 | 0.86 | 0.03 | 1005.5 | |
| 20260506105603 | 20 | 180 | 3.2 | 8.0 | 0.00 | 0.86 | 0.03 | 1005.5 | |
| 20260506104559 | 20 | 204 | 4.8 | 14.5 | 0.00 | 0.86 | 0.03 | 1005.5 | |
| 20260506103556 | 20 | 204 | 4.8 | 9.7 | 0.00 | 0.86 | 0.03 | 1005.6 | |
| 20260506102551 | 20 | 209 | 3.2 | 11.3 | 0.00 | 0.86 | 0.03 | 1005.7 | |
| 20260506101547 | 19 | 226 | 3.2 | 11.3 | 0.00 | 0.86 | 0.03 | 1005.8 | |
| 20260506100544 | 18 | 180 | 3.2 | 6.4 | 0.00 | 0.86 | 0.03 | 1005.7 | |
| 20260506095540 | 18 | 216 | 3.2 | 8.0 | 0.00 | 0.86 | 0.03 | 1005.8 | |
| 20260506094537 | 19 | 219 | 3.2 | 9.7 | 0.00 | 0.86 | 0.03 | 1005.9 | |
| 20260506093533 | 19 | 182 | 3.2 | 9.7 | 0.00 | 0.86 | 0.03 | 1005.9 | |
| 20260506092559 | 18 | 163 | 4.8 | 12.9 | 0.00 | 0.86 | 0.03 | 1006.0 | |
| 20260506091556 | 18 | 220 | 3.2 | 11.3 | 0.00 | 0.86 | 0.03 | 1005.8 | |
| 20260506090552 | 17 | 0 | 3.2 | 6.4 | 0.00 | 0.86 | 0.03 | 1006.0 | |
| 20260506085548 | 17 | 210 | 3.2 | 9.7 | 0.00 | 0.86 | 0.03 | 1006.0 | |
| 20260506084544 | 17 | 238 | 3.2 | 9.7 | 0.00 | 0.86 | 0.03 | 1005.9 | |
| 20260506083540 | 16 | 193 | 1.6 | 12.9 | 0.00 | 0.86 | 0.03 | 1005.6 | |
| 20260506082536 | 17 | 250 | 3.2 | 14.5 | 0.00 | 0.86 | 0.03 | 1005.6 | |
| 20260506081533 | 16 | 205 | 1.6 | 6.4 | 0.00 | 0.86 | 0.03 | 1005.6 | |
| 20260506080529 | 16 | 225 | 3.2 | 6.4 | 0.00 | 0.86 | 0.03 | 1005.6 | |
| 20260506073517 | 16 | 239 | 1.6 | 6.4 | 0.00 | 0.86 | 0.03 | 1005.4 | |
| 20260506072614 | 15 | 224 | 0.0 | 6.4 | 0.00 | 0.86 | 0.03 | 1005.5 | |
| 20260506071611 | 16 | 158 | 4.8 | 11.3 | 0.00 | 0.86 | 0.03 | 1005.5 | |
| 20260506070607 | 15 | 135 | 3.2 | 8.0 | 0.00 | 0.86 | 0.03 | 38 | 1005.5 |
| 20260506061548 | 12 | 139 | 1.6 | 8.0 | 0.00 | 0.86 | 0.03 | 74 | 1005.7 |
| 20260506060545 | 12 | 180 | 4.8 | 9.7 | 0.00 | 0.86 | 0.03 | 80 | 1005.8 |
| 20260506050553 | 12 | 184 | 1.6 | 6.4 | 0.00 | 0.86 | 0.03 | 84 | 1005.9 |
| 20260506044545 | 12 | 195 | 0.0 | 4.8 | 0.00 | 0.86 | 0.03 | 84 | 1005.8 |
| 20260506043542 | 12 | 0.0 | 1.6 | 0.00 | 0.86 | 0.03 | 84 | 1005.8 | |
| 20260506042538 | 12 | 0.0 | 0.0 | 0.00 | 0.86 | 0.03 | 86 | 1005.6 | |
| 20260506041534 | 12 | 0.0 | 1.6 | 0.00 | 0.86 | 0.03 | 84 | 1005.7 | |
| 20260506040600 | 12 | 215 | 1.6 | 8.0 | 0.00 | 0.86 | 0.03 | 85 | 1005.5 |
| 20260506035556 | 12 | 166 | 1.6 | 8.0 | 0.00 | 0.86 | 0.03 | 87 | 1005.6 |
| 20260506034553 | 12 | 0.0 | 3.2 | 0.00 | 0.86 | 0.03 | 88 | 1005.5 | |
| 20260506033548 | 12 | 0.0 | 3.2 | 0.00 | 0.86 | 0.03 | 85 | 1005.4 | |
| 20260506032544 | 12 | 0.0 | 4.8 | 0.00 | 0.89 | 0.03 | 85 | 1005.5 | |
| 20260506031541 | 12 | 0.0 | 3.2 | 0.00 | 0.89 | 0.03 | 84 | 1005.5 | |
| 20260506030538 | 12 | 225 | 0.0 | 6.4 | 0.00 | 0.89 | 0.03 | 82 | 1005.5 |
| 20260506025538 | 12 | 225 | 1.6 | 6.4 | 0.00 | 0.89 | 0.03 | 81 | 1005.6 |
| 20260506024600 | 12 | 0.0 | 4.8 | 0.03 | 0.89 | 0.03 | 83 | 1005.6 | |
| 20260506023556 | 12 | 0.0 | 0.0 | 0.03 | 0.89 | 0.03 | 81 | 1005.6 | |
| 20260506022552 | 12 | 0.0 | 0.0 | 0.03 | 0.89 | 0.03 | 81 | 1005.6 | |
| 20260506021548 | 12 | 0.0 | 0.0 | 0.03 | 0.89 | 0.03 | 80 | 1005.6 | |
| 20260506020545 | 12 | 0.0 | 0.0 | 0.03 | 0.89 | 0.03 | 80 | 1005.6 | |
| 20260506015541 | 12 | 0.0 | 0.0 | 0.03 | 0.89 | 0.03 | 79 | 1005.6 | |
| 20260506014537 | 12 | 0.0 | 0.0 | 0.00 | 0.86 | 0.00 | 77 | 1005.6 | |
| 20260506013533 | 12 | 0.0 | 0.0 | 0.00 | 0.89 | 0.00 | 76 | 1005.8 | |
| 20260506012600 | 12 | 0.0 | 0.0 | 0.00 | 0.89 | 0.00 | 74 | 1005.9 | |
| 20260506011556 | 12 | 180 | 0.0 | 4.8 | 0.00 | 0.89 | 0.00 | 73 | 1005.8 |
| 20260506010552 | 12 | 0.0 | 0.0 | 0.00 | 0.89 | 0.00 | 70 | 1005.9 | |
| 20260506005549 | 12 | 180 | 1.6 | 6.4 | 0.00 | 0.89 | 0.00 | 69 | 1006.0 |
| 20260506004545 | 12 | 0.0 | 0.0 | 0.00 | 0.89 | 0.00 | 67 | 1006.1 | |
| 20260506003542 | 12 | 0.0 | 0.0 | 0.00 | 0.89 | 0.00 | 66 | 1006.1 | |
| 20260506002537 | 12 | 0.0 | 1.6 | 0.00 | 0.89 | 0.00 | 64 | 1006.3 | |
| 20260506001533 | 12 | 0.0 | 0.0 | 0.00 | 0.89 | 0.00 | 63 | 1006.2 | |
| 20260506000600 | 12 | 0.0 | 0.0 | 0.00 | 0.89 | 0.00 | 61 | 1006.4 | |
| 20260505235556 | 12 | 0.0 | 0.0 | 0.00 | 0.89 | 0.00 | 59 | 1006.4 | |
| 20260505234552 | 12 | 0.0 | 0.0 | 0.00 | 0.89 | 0.00 | 56 | 1006.4 | |
| 20260505233549 | 12 | 0.0 | 0.0 | 0.00 | 0.89 | 0.00 | 54 | 1006.5 | |
| 20260505232544 | 12 | 180 | 0.0 | 4.8 | 0.00 | 0.89 | 0.00 | 49 | 1006.5 |
| 20260505231540 | 12 | 180 | 0.0 | 3.2 | 0.00 | 0.89 | 0.00 | 45 | 1006.4 |
| 20260505230537 | 12 | 180 | 3.2 | 6.4 | 0.00 | 0.89 | 0.00 | 40 | 1006.4 |
| 20260505225533 | 12 | 187 | 1.6 | 4.8 | 0.00 | 0.89 | 0.00 | 34 | 1006.4 |
| 20260505224529 | 12 | 0.0 | 3.2 | 0.00 | 0.89 | 0.00 | 28 | 1006.3 | |
| 20260505223526 | 12 | 0.0 | 1.6 | 0.03 | 0.89 | 0.00 | 25 | 1006.3 | |
| 20260505222522 | 12 | 0.0 | 0.0 | 0.03 | 0.89 | 0.00 | 25 | 1006.3 | |
| 20260505221519 | 12 | 0.0 | 0.0 | 0.03 | 0.89 | 0.00 | 25 | 1006.3 | |
| 20260505220615 | 12 | 0.0 | 0.0 | 0.03 | 0.89 | 0.00 | 24 | 1006.3 | |
| 20260505215611 | 12 | 0.0 | 0.0 | 0.03 | 0.89 | 0.89 | 24 | 1006.3 | |
| 20260505214607 | 12 | 0.0 | 1.6 | 0.03 | 0.89 | 0.89 | 21 | 1006.4 | |
| 20260505213604 | 12 | 0.0 | 0.0 | 0.00 | 0.86 | 0.86 | 15 | 1006.6 | |
| 20260505212600 | 12 | 0.0 | 0.0 | 0.00 | 0.86 | 0.86 | 11 | 1006.7 | |
| 20260505211556 | 12 | 0.0 | 0.0 | 0.00 | 0.86 | 0.86 | 1006.7 | ||
| 20260505210551 | 12 | 0.0 | 0.0 | 0.00 | 0.86 | 0.86 | 1006.7 | ||
| 20260505205548 | 12 | 0.0 | 0.0 | 0.00 | 0.86 | 0.86 | 1006.5 | ||
| 20260505204544 | 12 | 0.0 | 0.0 | 0.03 | 0.86 | 0.86 | 1006.4 | ||
| 20260505203542 | 13 | 0.0 | 0.0 | 0.03 | 0.86 | 0.86 | 1006.3 | ||
| 20260505202537 | 13 | 0.0 | 0.0 | 0.03 | 0.86 | 0.86 | 1006.3 | ||
| 20260505201532 | 13 | 0.0 | 0.0 | 0.03 | 0.86 | 0.86 | 1006.3 | ||
| 20260505200529 | 13 | 0.0 | 0.0 | 0.03 | 0.86 | 0.86 | 1006.4 | ||
| 20260505195525 | 13 | 0.0 | 0.0 | 0.03 | 0.86 | 0.86 | 1006.4 | ||
| 20260505194521 | 13 | 0.0 | 0.0 | 0.00 | 0.84 | 0.84 | 1006.4 | ||
| 20260505193518 | 13 | 0.0 | 0.0 | 0.00 | 0.84 | 0.84 | 1006.4 | ||
| 20260505192614 | 13 | 0.0 | 0.0 | 0.00 | 0.84 | 0.84 | 1006.4 | ||
| 20260505191610 | 13 | 0.0 | 0.0 | 0.03 | 0.84 | 0.84 | 1006.4 | ||
| 20260505190606 | 13 | 0.0 | 0.0 | 0.03 | 0.84 | 0.84 | 1006.3 | ||
| 20260505185602 | 13 | 0.0 | 0.0 | 0.03 | 0.84 | 0.84 | 1006.3 | ||
| 20260505184559 | 13 | 0.0 | 0.0 | 0.03 | 0.84 | 0.84 | 1006.3 | ||
| 20260505183555 | 13 | 0.0 | 1.6 | 0.05 | 0.84 | 0.84 | 1006.2 | ||
| 20260505182551 | 13 | 0.0 | 3.2 | 0.10 | 0.84 | 0.84 | 1006.0 | ||
| 20260505181547 | 13 | 0.0 | 0.0 | 0.13 | 0.81 | 0.81 | 1006.0 | ||
| 20260505180544 | 13 | 0.0 | 0.0 | 0.33 | 0.81 | 0.81 | 1006.0 | ||
| 20260505175540 | 13 | 0.0 | 0.0 | 0.46 | 0.81 | 0.81 | 1005.8 | ||
| 20260505174537 | 13 | 1 | 3.2 | 6.4 | 0.69 | 0.81 | 0.81 | 1005.6 | |
| 20260505173533 | 13 | 0 | 1.6 | 6.4 | 0.69 | 0.79 | 0.79 | 1005.8 | |
| 20260505172558 | 13 | 313 | 1.6 | 8.0 | 0.66 | 0.76 | 0.76 | 1006.0 | |
| 20260505171555 | 13 | 228 | 6.4 | 14.5 | 0.64 | 0.69 | 0.69 | 1006.1 | |
| 20260505170551 | 14 | 180 | 8.0 | 17.7 | 0.43 | 0.48 | 0.48 | 1006.0 | |
| 20260505165548 | 15 | 257 | 8.0 | 14.5 | 0.30 | 0.36 | 0.36 | 1005.7 | |
| 20260505164543 | 15 | 237 | 4.8 | 14.5 | 0.05 | 0.13 | 0.13 | 1005.6 | |
| 20260505163540 | 16 | 266 | 3.2 | 14.5 | 0.03 | 0.10 | 0.10 | 1005.3 | |
| 20260505162536 | 16 | 275 | 1.6 | 6.4 | 0.03 | 0.10 | 0.10 | 1004.9 | |
| 20260505161532 | 16 | 331 | 1.6 | 6.4 | 0.00 | 0.05 | 0.05 | 1004.9 | |
| 20260505160528 | 17 | 45 | 3.2 | 6.4 | 0.00 | 0.05 | 0.05 | 1005.0 | |
| 20260505152613 | 18 | 195 | 3.2 | 9.7 | 0.00 | 0.05 | 0.05 | 1005.4 | |
| 20260505151610 | 20 | 187 | 4.8 | 8.0 | 0.00 | 0.05 | 0.05 | 1005.1 | |
| 20260505150606 | 21 | 45 | 3.2 | 9.7 | 0.00 | 0.05 | 0.05 | 1004.8 | |
| 20260505140543 | 24 | 315 | 3.2 | 6.4 | 0.00 | 0.05 | 0.05 | 1005.2 |